Tracking 26940 objects as of 28-Jan-2023
HD Live streaming from Space Station
objects crossing your sky now

BEIDOU 1B

Track BEIDOU 1B now!
BEIDOU 1B is classified as:


NORAD ID: 26643
Int'l Code: 2000-082A
Perigee: 35,729.6 km
Apogee: 36,434.2 km
Inclination: 10.8 °
Period: 1,450.8 minutes
Semi major axis: 42452 km
RCS: 0.1238 m2 (medium)
Launch date: December 20, 2000
Source: People's Republic of China (PRC)
Launch site: Xichang Space Center, China (XSC)

Space-bsaed navigation and positioning system to improve accuracy of weapons and situational awareness of military forces.
Your satellite tracking list
Your tracking list is empty




NASA's NSSDC Master Catalog

Two Line Element Set (TLE):
1 26643U 00082A   23027.66232769  .00000018  00000-0  00000-0 0  9995
2 26643  10.8143  35.6457 0082994  56.2285 121.2651  0.99252567 39803
Source of the keplerian elements: AFSPC